EHI
0 1 5 7 7 8 10 11 12 16 20 19 16 15 13 10 6 3 1 0 1 2 1 1 1 2 2 2 2 2 3 2 1 3 6 8 8 6 5 3 1 0 0
0 1 4 7 7 7 9 11 12 14 16 14 11 10 9 7 5 3 1 0 1 2 1 1 1 2 1 1 1 1 2 1 1 3 4 4 4 4 3 2 0 0 0
0 1 3 5 5 4 6 10 11 11 12 10 8 6 5 4 3 2 1 0 1 1 1 0 1 1 0 0 0 0 0 1 1 2 1 1 1 1 1 0 0 0 0
0 0 1 3 4 3 5 9 10 10 9 9 7 4 2 2 1 1 0 0 0 0 0 0 0 0 0 0 0 0 0 0 1 1 0 0 0 0 0 1 1 0 0
0 0 1 2 2 2 5 9 9 8 7 6 5 2 1 1 0 0 0 0 0 0 0 0 0 0 0 0 0 0 0 0 0 0 0 0 0 1 2 2 1 0 0
1 0 1 2 1 1 5 8 6 4 3 3 2 1 0 1 1 1 0 0 0 0 0 0 0 0 1 1 1 1 1 1 0 0 0 0 0 2 4 4 2 0 0
2 1 1 2 1 1 3 4 3 1 1 0 0 0 1 2 2 2 1 0 0 0 0 0 0 1 2 2 2 2 2 1 0 0 0 0 1 3 6 6 4 1 0
3 2 2 2 1 1 1 2 2 2 1 0 0 1 2 3 3 2 1 0 0 0 0 0 1 2 3 3 3 3 2 1 0 0 0 0 2 5 7 7 5 2 0
3 3 2 1 1 0 1 3 3 2 1 0 1 2 2 3 3 3 1 0 0 0 0 1 2 3 3 3 3 2 1 0 0 0 0 0 3 6 8 6 4 2 1
2 2 2 1 0 0 1 2 2 1 0 0 1 2 1 1 2 2 1 0 1 1 1 2 3 3 4 4 3 1 0 0 0 0 0 1 5 8 9 7 5 2 1
1 1 1 1 0 0 0 0 1 1 0 0 1 2 1 0 1 1 2 2 3 4 5 5 5 5 5 4 2 1 0 0 0 0 0 2 7 11 11 9 7 5 4
1 0 0 0 0 0 0 0 0 0 0 0 1 1 0 0 0 0 2 4 6 7 7 7 7 6 4 2 1 1 0 0 0 0 1 4 10 15 15 13 11 9 6
0 0 0 0 0 0 0 0 0 0 0 0 0 0 0 0 0 0 1 2 4 5 6 5 4 3 2 1 1 1 1 0 0 0 1 5 12 17 18 17 15 12 9
0 0 0 0 0 0 0 0 0 0 0 0 0 0 0 0 0 0 0 0 1 1 2 1 1 0 0 1 2 2 1 0 0 0 2 7 13 18 19 19 16 13 12
1 0 0 0 0 0 0 0 0 0 0 0 0 0 0 0 0 0 0 0 0 0 0 0 0 0 0 1 1 1 1 1 1 1 2 7 14 17 19 18 15 14 13
2 2 1 1 1 1 0 0 1 1 1 1 0 0 1 1 1 0 0 0 0 0 0 0 0 0 0 0 0 0 1 2 2 2 2 6 11 15 17 16 15 15 15
5 6 6 5 5 3 1 1 2 2 2 1 0 1 2 2 2 1 1 1 0 0 0 0 0 0 0 0 0 0 1 2 2 2 2 4 8 12 15 16 18 18 17
11 12 12 10 9 7 4 3 2 2 1 0 0 1 2 3 3 3 2 2 1 0 0 0 0 0 0 0 0 0 0 1 1 1 1 3 6 8 11 16 20 20 19
18 18 16 13 12 10 6 4 2 1 0 0 0 0 1 2 3 3 3 3 2 0 0 0 0 0 1 0 0 0 0 0 0 0 1 2 3 4 6 10 16 18 19
25 24 19 15 13 10 8 5 3 1 1 1 1 1 1 3 4 4 3 3 2 1 0 0 0 0 0 0 0 0 0 0 0 0 0 1 1 2 2 4 8 12 14
30 28 23 16 12 10 9 7 4 1 1 1 2 2 3 4 5 4 2 2 3 2 1 0 0 0 0 0 0 0 0 0 0 0 0 0 0 0 0 1 3 5 6
34 32 27 19 13 10 9 8 5 2 0 1 2 3 4 5 6 4 2 2 3 2 1 0 1 1 1 0 0 0 0 0 0 0 0 0 0 0 0 2 3 3 2
37 34 29 23 16 11 9 8 6 4 3 3 3 2 4 6 7 6 4 2 2 1 1 0 1 2 2 0 0 0 0 0 0 0 0 0 0 0 0 1 3 4 4
38 35 31 27 21 13 10 9 8 8 8 7 5 3 4 7 8 8 6 3 2 1 1 1 1 2 3 2 1 0 0 0 0 0 0 0 0 0 0 0 2 3 4
39 36 34 31 25 17 13 11 9 10 10 9 7 5 6 8 8 7 7 6 4 4 4 4 4 4 6 6 3 1 1 1 1 1 0 0 0 0 0 0 0 1 2
41 39 36 33 28 22 16 13 10 9 10 9 7 6 7 8 7 7 7 8 7 6 7 7 6 6 8 8 6 3 2 2 2 2 1 0 0 0 0 0 1 1 1
Wind_Speed
3 5 13 15 16 17 17 18 19 19 20 20 20 20 20 19 18 18 17 15 15 14 14 13 13 13 13 13 13 13 13 13 13 14 14 13 13 13 13 13 13 9 14
6 7 14 16 17 17 17 18 19 19 19 19 19 19 18 18 17 16 15 15 14 14 13 13 12 12 12 12 12 12 12 12 12 13 13 12 12 13 12 12 11 8 13
9 8 13 16 17 17 17 18 18 18 18 18 18 18 17 17 16 15 15 14 13 13 12 11 11 11 11 10 10 10 10 10 11 12 11 5 7 11 12 12 12 13 12
10 8 11 16 17 17 17 17 18 18 18 17 17 17 16 16 15 15 14 13 12 11 11 10 10 9 9 10 9 8 8 9 9 9 5 4 5 11 12 12 12 12 12
9 8 12 18 17 17 17 17 17 17 17 17 16 16 15 15 14 14 13 12 11 10 10 9 9 8 8 8 7 6 6 6 7 5 3 3 4 10 12 12 12 12 12
9 9 12 18 17 17 16 17 17 16 16 16 15 15 14 14 13 12 12 11 10 10 9 8 7 7 6 6 5 5 4 4 4 3 3 3 4 9 11 11 11 11 11
9 8 10 17 16 16 16 17 16 16 16 15 14 14 13 13 12 11 11 10 10 9 8 7 6 5 5 4 3 3 2 2 2 3 3 3 4 9 11 11 10 10 10
11 8 9 16 16 16 17 16 16 16 16 15 14 13 13 12 11 10 10 9 9 8 7 6 5 4 3 3 2 1 1 1 3 3 3 4 7 9 11 11 10 10 10
10 8 7 8 11 15 16 15 15 15 15 14 13 12 12 11 10 9 9 8 8 7 6 5 4 3 3 2 1 1 1 2 2 2 4 3 7 10 11 11 10 10 10
8 7 6 5 5 6 8 14 14 14 14 13 12 12 11 10 9 9 7 7 7 7 6 5 4 3 2 2 1 1 1 2 2 2 2 4 8 11 11 11 10 10 9
9 6 6 5 5 5 6 10 11 12 12 11 9 11 9 4 4 4 6 7 7 7 6 5 4 4 3 2 3 2 1 1 2 2 2 7 10 11 11 11 11 10 10
9 7 6 6 6 5 5 5 3 4 5 4 4 4 3 3 3 4 6 8 7 7 6 5 5 4 3 1 2 2 0 1 1 2 3 9 10 11 12 11 11 10 10
11 9 7 7 6 5 3 4 2 2 2 3 4 4 3 2 2 2 1 2 3 4 2 2 2 1 2 2 2 1 1 2 2 2 4 9 10 11 11 11 11 10 10
11 10 8 8 7 5 4 4 3 2 2 2 3 4 3 2 2 2 2 2 2 1 2 2 1 2 3 3 3 3 3 2 2 2 4 11 11 11 12 11 11 11 11
10 10 9 8 7 6 5 4 4 3 3 4 3 3 4 3 3 3 2 2 2 2 2 2 2 3 3 3 3 4 4 4 4 3 3 10 12 11 12 12 12 12 11
10 10 9 8 7 7 5 4 4 4 3 3 3 4 4 3 3 3 2 2 2 2 2 3 3 3 2 2 2 2 3 3 3 4 3 6 11 12 12 12 12 12 12
11 10 9 9 8 7 6 5 4 3 3 3 3 3 4 4 4 3 2 2 2 2 2 2 2 1 2 2 2 2 2 3 3 4 4 3 5 10 12 12 12 11 11
10 10 10 10 9 7 6 4 3 3 3 3 3 3 4 4 4 3 2 2 2 2 1 1 1 1 1 1 2 2 2 2 3 3 3 4 3 4 7 11 11 11 12
11 10 9 8 8 7 6 4 4 3 3 3 3 3 4 4 4 3 3 2 2 1 1 1 1 1 1 2 2 2 2 2 2 3 3 4 4 4 4 7 11 11 12
10 10 9 8 8 7 4 3 2 2 2 2 3 4 5 4 4 4 3 2 2 1 1 1 1 1 2 2 2 2 2 2 2 3 4 3 4 5 5 5 4 6 11
10 9 9 8 8 6 4 3 3 3 3 3 3 5 5 5 5 4 3 3 2 2 2 2 1 1 1 0 1 2 3 2 2 2 2 2 3 4 4 4 4 3 4
12 11 10 9 8 7 5 4 3 3 3 3 3 4 5 5 5 5 4 3 3 2 2 2 2 1 1 1 2 1 2 4 3 2 2 2 3 2 3 4 4 4 4
13 13 12 10 9 8 6 3 2 1 1 1 2 2 4 5 5 5 5 4 3 3 3 3 3 3 2 1 2 3 2 2 3 3 2 2 2 1 2 2 4 5 5
15 13 11 11 9 8 7 6 6 5 4 4 3 3 4 4 5 5 5 5 4 3 4 4 3 3 3 2 1 2 3 3 2 2 3 2 2 2 2 2 3 4 4
14 13 11 10 10 9 8 8 7 5 4 3 2 4 4 3 4 5 5 4 4 4 4 4 3 3 3 3 2 2 1 1 2 2 3 3 2 2 2 3 3 3 4
11 11 10 11 10 10 9 8 8 7 6 4 4 4 4 3 3 4 5 5 4 4 4 4 3 3 3 3 3 2 2 2 2 2 3 3 3 3 2 2 2 3 3
Wind_Direction
150 146 131 122 117 113 112 111 110 109 109 109 110 111 112 113 114 115 114 112 110 108 105 101 99 97 97 100 104 107 108 109 110 111 112 112 111 112 112 111 109 110 112
145 145 133 125 120 116 115 115 113 112 111 111 112 113 113 114 115 114 113 112 111 109 107 104 103 101 100 101 104 107 110 112 112 112 110 111 113 114 115 115 114 117 116
131 131 131 127 123 119 118 118 117 116 116 115 114 115 115 115 116 116 115 114 113 111 109 108 107 105 104 104 105 109 111 114 113 111 107 98 110 116 118 116 118 119 119
130 128 131 130 127 123 121 121 120 120 119 118 118 118 117 117 118 119 118 117 116 114 113 111 108 108 107 106 107 109 112 115 116 116 108 106 114 122 122 122 123 124 122
127 127 135 131 128 126 124 124 123 123 122 121 121 120 120 121 121 121 121 120 119 118 116 114 112 112 111 111 110 107 111 119 116 110 110 111 118 131 131 130 130 130 129
127 130 136 132 131 130 129 128 126 125 125 124 124 123 123 123 123 124 125 125 124 123 121 119 118 117 116 112 109 106 102 105 99 107 114 128 134 141 139 137 137 136 136
132 131 136 136 134 134 135 134 132 131 129 129 128 128 128 128 129 130 131 131 130 129 127 126 127 125 121 117 110 99 79 90 115 134 139 144 151 150 147 145 145 144 141
137 136 139 141 139 137 138 138 138 137 135 135 136 135 134 135 136 137 137 138 136 135 136 138 137 134 133 130 115 77 32 98 126 134 147 157 160 155 153 152 152 152 150
134 136 137 142 142 142 141 141 141 141 140 141 142 142 142 143 143 143 144 146 146 147 150 151 153 156 157 161 167 344 38 105 120 138 155 161 165 163 162 160 159 159 160
130 133 133 130 134 140 143 147 147 146 145 147 149 151 151 152 152 153 156 160 162 164 166 169 177 191 199 221 255 287 58 116 145 158 158 175 171 168 169 168 167 167 168
134 136 135 132 132 136 145 152 151 151 153 154 156 160 157 150 153 160 173 175 177 180 182 186 193 207 228 257 274 288 322 133 154 163 173 179 177 173 172 172 172 175 175
149 152 150 148 150 150 154 143 147 149 151 154 159 162 156 163 180 181 189 191 193 197 198 202 209 218 234 267 282 292 209 155 160 183 189 184 184 182 178 177 178 180 182
159 159 161 159 158 156 145 146 147 144 153 163 174 177 171 170 189 188 184 201 207 210 214 220 225 220 230 243 252 243 208 192 183 191 194 190 190 188 187 186 184 186 189
161 166 168 166 162 162 151 152 155 158 162 173 184 180 168 169 182 175 183 198 203 206 204 220 222 223 232 241 240 230 214 201 191 189 203 197 195 194 194 194 194 196 198
164 169 171 168 165 162 153 164 165 177 178 180 180 180 174 172 177 178 190 193 205 205 206 213 228 236 240 247 243 228 215 204 197 196 204 201 199 200 200 202 203 204 207
170 170 169 166 168 163 162 166 168 176 174 174 181 185 178 173 174 175 187 196 206 207 207 209 220 226 235 245 257 230 208 207 204 202 206 207 206 207 209 210 211 210 211
169 166 167 167 167 165 165 173 167 172 169 176 187 188 179 173 172 171 181 203 217 208 201 209 227 224 238 246 256 244 219 219 211 209 205 206 212 215 214 214 213 212 213
164 164 170 171 167 168 169 171 166 172 174 181 184 185 188 182 175 169 180 205 213 202 190 190 206 223 271 271 265 262 239 228 224 218 203 203 209 215 217 217 217 218 217
166 166 170 167 167 171 174 174 174 174 181 188 185 185 190 189 182 175 188 205 198 189 198 213 181 182 234 266 267 265 258 239 225 222 209 205 208 213 214 221 223 223 222
167 166 168 167 171 172 169 165 167 176 189 192 191 190 189 193 187 178 189 200 185 176 203 208 202 208 216 237 274 297 283 261 227 216 221 217 214 217 214 218 221 228 227
168 168 171 171 177 172 170 172 176 194 198 201 203 197 195 194 184 180 191 192 187 187 203 198 187 206 246 175 44 342 325 316 268 244 226 218 225 227 216 214 212 220 226
175 177 176 178 180 181 184 179 178 180 197 200 204 200 200 196 190 189 186 192 193 186 198 198 176 167 242 154 138 76 346 337 323 282 262 232 230 221 220 213 204 208 214
182 186 184 185 185 185 181 166 171 161 196 207 212 209 209 198 195 195 190 189 192 187 199 204 189 182 207 237 169 154 158 245 300 315 296 261 227 208 220 212 207 213 212
188 188 186 184 186 187 180 178 180 187 199 210 206 210 216 203 196 196 194 191 194 196 201 209 195 189 182 220 235 199 187 176 182 304 316 304 277 229 223 219 219 220 215
185 186 187 183 186 187 186 188 190 199 204 208 201 202 210 211 201 196 195 189 193 199 206 209 199 195 189 197 203 204 205 200 186 186 271 304 315 280 240 225 218 214 210
181 183 182 183 187 188 189 192 193 196 197 198 203 201 206 213 217 209 202 194 194 196 204 208 205 201 205 204 202 192 185 191 205 191 226 260 278 282 275 251 230 218 214